Regional Weather Roundup
Issued by NWS State College, PA

Home | Current Version | Previous Version | Graphics & Text | Print | Product List | Glossary On
Versions: 1 2 3 4 5 6 7 8 9 10 11 12 13 14 15 16 17 18 19 20 21 22 23 24 25 26 27 28 29 30 31 32 33 34 35 36 37 38 39 40 41 42 43 44 45 46 47 48 49 50
000
ASUS41 KCTP 280803
RWRCTP

REGIONAL WEATHER ROUNDUP
NATIONAL WEATHER SERVICE STATE COLLEGE PA
400 AM EDT SAT MAY 28 2016

Note: "fair" indicates few or no clouds below 12,000 feet with no
significant weather and/or obstructions to visibility.

* = STATION THAT DOES NOT REPORT PRECIPITATION /E.G. RAIN...SNOW...ETC/
    THUNDER OR FOG.

PAZ002>004-007>009-013>016-020>023-029>032-280900-
WESTERN PENNSYLVANIA

CITY           SKY/WX    TMP DP  RH WIND       PRES   REMARKS
ERIE           CLOUDY    71  63  75 S8        30.05R
MEADVILLE      CLOUDY    66  62  87 S3        30.09R
FRANKLIN*      CLOUDY    66  61  82 CALM      30.12S
NEW CASTLE     FAIR      65  64  97 CALM      30.08S
BEAVER COUNTY  NOT AVBL
BUTLER*        PTCLDY   N/A N/A N/A CALM      30.11S
PITTSBURGH INT PTCLDY    69  62  78 CALM      30.08R
PITTSBURGH     CLOUDY    70  62  76 CALM      30.08S
INDIANA*       CLEAR     64  63  94 CALM      30.14R
LATROBE        CLOUDY    64  64 100 CALM      30.10S
WASHINGTON CO* PTCLDY    61  59  94 CALM      30.09S
$$

PAZ004>006-010>012-017>019-024>028-033>037-041-042-045-046-049>053-280900-
CENTRAL PENNSYLVANIA

CITY           SKY/WX    TMP DP  RH WIND       PRES   REMARKS
BRADFORD       PTCLDY    58  55  90 CALM      30.14R
DUBOIS         CLEAR     65  61  87 E3        30.12R
CLEARFIELD     CLEAR     63  60  90 N3        30.12R
JOHNSTOWN      CLEAR     67  58  72 SW6       30.14S
ALTOONA        CLEAR     65  62  90 SW3       30.12R
STATE COLLEGE  CLEAR     65  64  94 CALM      30.11R
WILLIAMSPORT   CLOUDY    67  64  90 CALM      30.07S FOG
SELINSGROVE    CLEAR     68  64  87 CALM      30.08S
FT INDIANTOWN  PTCLDY    65  65 100 CALM      30.09S
CAPITAL CITY   CLEAR     68  65  90 CALM      30.08F
HARRISBURG     CLEAR     69  65  86 CALM      30.08S
YORK           PTCLDY    65  63  93 CALM      30.09R
$$

PAZ038>040-043-044-047-048-054-055-060>062-067>071-280900-
EASTERN PENNSYLVANIA

CITY           SKY/WX    TMP DP  RH WIND       PRES   REMARKS
SCRANTON       CLEAR     66  63  90 SE3       30.08S
MOUNT POCONO   CLEAR     65  63  93 W5        30.13S
ALLENTOWN      CLOUDY    69  64  84 SW6       30.09R
QUAKERTOWN*    MOSUNNY   70  64  83 CALM      30.11S
READING        PTCLDY    71  63  75 CALM      30.09R
LANCASTER      CLEAR     66  63  90 NE3       30.09S
COATESVILLE    SUNNY     68  63  83 CALM      30.13R
POTTSTOWN      PTCLDY    71  63  75 S7        30.11S
BLUE BELL      CLEAR     68  61  77 S3        30.10S
DOYLESTOWN     PTCLDY    70  61  73 S5        30.09S
WILLOW GROVE   NOT AVBL
NORTH PHILA    CLEAR     72  59  63 SW8       30.11S
PHILADELPHIA   PTCLDY    69  58  67 S6        30.11S
$$




USA.gov is the U.S. government's official web portal to all federal, state and local government web resources and services.